Content
SEND FEEDBACK

Daily
Averages
Monthly
Summary
United States of America

SAN RAFAEL, CALIFORNIA


Home > North America > United States > California
Elevation: 30 feet     Latitude: 37 58N     Longitude: 122 32W

WEATHER
 
SELECT A DAY
Number of Records: 164,583;   Date Range: 9/27/07 - 7/21/14
 
SHARE

PRINT THIS DATA

[ ← Previous Day ]
WEATHER ALMANAC - MAY 14, 2013
[ Next Day → ]
[ °C ]   °F
Weather ElementAverageHighLow
Temperature61.3 °F77 °F (1:55 pm)46.4 °F (6:15 am)
Dewpoint48.5 °F51.8 °F (7:35 am)44.6 °F (7:55 pm)
Humidity67.1 %100 % (1:55 am)38 % (12:35 pm)
Barometer29.94 in30.00 in (10:55 pm)29.91 in (3:35 pm)
Wind Speed5.8 mph17.3 mph (4:55 pm)
Wind Gust23 mph (5:15 pm)
Weather ElementAverage
Visibility10 mi
Wind DirectionSE (139.4 °)

Weather ElementTotal
Precipitation---
Heating Degree Days3.3 (Base 65)
Growing Degree Days11.7 (Base 50)
Averaged from 69 records on May 14, 2013
WEATHER CONDITIONS BREAKOUT
WIND DIRECTION BREAKOUT
WEATHER BY HOUR - MAY 14, 2013
[ °C ]   °F
Local TimeTemperatureDewpointHumidityBarometerVisibilityWind DirectionWind SpeedGust SpeedPrecipitationEventsConditions
12:35 AM51.8 °F50.0 °F94 %29.96 in10.0 miCalmClear
12:55 AM53.6 °F48.2 °F82 %29.96 in10.0 miCalmClear
1:15 AM55.4 °F48.2 °F77 %29.95 in10.0 miNW (320°)3.5 mphClear
1:35 AM53.6 °F50.0 °F88 %29.95 in10.0 miCalmClear
1:55 AM50.0 °F50.0 °F100 %29.95 in10.0 miCalmClear
2:15 AM53.6 °F50.0 °F88 %29.94 in10.0 miCalmClear
2:55 AM50.0 °F50.0 °F100 %29.94 in10.0 miNE (50°)3.5 mphClear
3:15 AM50.0 °F50.0 °F100 %29.94 in10.0 miCalmClear
3:35 AM50.0 °F50.0 °F100 %29.94 in10.0 miCalmClear
3:55 AM48.2 °F48.2 °F100 %29.94 in10.0 miCalmClear
4:15 AM50.0 °F50.0 °F100 %29.94 in10.0 miCalmClear
4:35 AM48.2 °F48.2 °F100 %29.94 in10.0 miCalmClear
4:55 AM48.2 °F48.2 °F100 %29.94 in10.0 miCalmClear
5:15 AM50.0 °F50.0 °F100 %29.94 in10.0 miCalmClear
5:35 AM50.0 °F50.0 °F100 %29.94 in10.0 miCalmClear
5:55 AM50.0 °F50.0 °F100 %29.95 in10.0 miWest (280°)3.5 mphClear
6:15 AM46.4 °F46.4 °F100 %29.95 in10.0 miNNW (330°)3.5 mphClear
6:35 AM48.2 °F48.2 °F100 %29.95 in10.0 miCalmClear
6:55 AM48.2 °F48.2 °F100 %29.96 in9.0 miCalmClear
7:15 AM51.8 °F50.0 °F94 %29.96 in10.0 miCalmClear
7:35 AM53.6 °F51.8 °F94 %29.96 in9.0 miCalmClear
7:55 AM55.4 °F50.0 °F82 %29.95 in10.0 miCalmClear
8:15 AM57.2 °F50.0 °F77 %29.95 in10.0 miSouth (170°)3.5 mphClear
8:35 AM59.0 °F50.0 °F72 %29.96 in10.0 miSouth (190°)5.8 mphClear
8:55 AM62.6 °F51.8 °F68 %29.96 in10.0 miSouth (170°)4.6 mphClear
9:15 AM64.4 °F50.0 °F59 %29.96 in10.0 miSSW (200°)8.1 mphClear
9:35 AM64.4 °F50.0 °F59 %29.96 in10.0 miSouth (180°)9.2 mphClear
9:55 AM66.2 °F50.0 °F56 %29.96 in10.0 miWSW (240°)4.6 mphClear
10:15 AM68.0 °F50.0 °F52 %29.95 in10.0 miCalmClear
10:35 AM68.0 °F50.0 °F52 %29.95 in10.0 miSSW (210°)3.5 mphClear
10:55 AM69.8 °F50.0 °F49 %29.96 in10.0 miSSW (210°)4.6 mphClear
11:15 AM71.6 °F48.2 °F43 %29.96 in10.0 miSouth (190°)10.4 mphClear
11:35 AM73.4 °F50.0 °F44 %29.95 in10.0 miSW (230°)11.5 mphClear
11:55 AM73.4 °F50.0 °F44 %29.95 in10.0 miSW (230°)15.0 mph19.6 mphClear
12:15 PM73.4 °F50.0 °F44 %29.95 in10.0 miSW (220°)11.5 mphClear
12:35 PM75.2 °F48.2 °F38 %29.95 in10.0 miWest (270°)4.6 mph19.6 mphClear
12:55 PM75.2 °F48.2 °F38 %29.95 in10.0 miSSW (200°)3.5 mph21.9 mphClear
1:15 PM75.2 °F50.0 °F41 %29.94 in10.0 miWSW (240°)9.2 mphClear
1:35 PM75.2 °F50.0 °F41 %29.93 in10.0 miWSW (240°)11.5 mphClear
1:55 PM77.0 °F50.0 °F39 %29.93 in10.0 miWSW (240°)15.0 mph18.4 mphClear
2:15 PM75.2 °F50.0 °F41 %29.93 in10.0 miWSW (250°)13.8 mphClear
2:35 PM75.2 °F50.0 °F41 %29.93 in10.0 miSW (230°)13.8 mphClear
2:55 PM75.2 °F50.0 °F41 %29.92 in10.0 miWSW (240°)12.7 mphClear
3:15 PM73.4 °F48.2 °F41 %29.92 in10.0 miSW (230°)11.5 mph20.7 mphClear
3:35 PM75.2 °F48.2 °F38 %29.91 in10.0 miWSW (240°)13.8 mph18.4 mphClear
3:55 PM73.4 °F48.2 °F41 %29.91 in10.0 miSW (220°)16.1 mph20.7 mphClear
4:15 PM73.4 °F48.2 °F41 %29.91 in10.0 miSW (220°)15.0 mphClear
4:35 PM73.4 °F48.2 °F41 %29.91 in10.0 miSW (220°)15.0 mphClear
4:55 PM73.4 °F48.2 °F41 %29.91 in10.0 miSW (220°)17.3 mph21.9 mphClear
5:15 PM71.6 °F48.2 °F43 %29.91 in10.0 miSW (220°)12.7 mph23.0 mphClear
5:35 PM71.6 °F46.4 °F41 %29.91 in10.0 miSW (220°)13.8 mph23.0 mphClear
5:55 PM69.8 °F46.4 °F43 %29.91 in10.0 miSW (230°)11.5 mph19.6 mphClear
6:15 PM68.0 °F46.4 °F46 %29.91 in10.0 miSW (230°)12.7 mph18.4 mphClear
6:35 PM66.2 °F46.4 °F49 %29.91 in10.0 miSW (220°)12.7 mph20.7 mphClear
6:55 PM64.4 °F46.4 °F52 %29.91 in10.0 miSW (220°)11.5 mphClear
7:15 PM64.4 °F46.4 °F52 %29.92 in10.0 miWSW (240°)6.9 mphClear
7:35 PM62.6 °F46.4 °F55 %29.92 in10.0 miSW (230°)6.9 mphClear
7:55 PM60.8 °F44.6 °F55 %29.93 in10.0 miSW (230°)6.9 mphClear
8:15 PM59.0 °F44.6 °F59 %29.93 in10.0 miSW (220°)4.6 mphClear
8:35 PM59.0 °F46.4 °F63 %29.94 in10.0 miCalmClear
8:55 PM57.2 °F44.6 °F63 %29.95 in10.0 miSouth (180°)4.6 mphClear
9:15 PM57.2 °F46.4 °F67 %29.96 in10.0 miCalmClear
9:35 PM51.8 °F46.4 °F82 %29.97 in10.0 miCalmClear
9:55 PM53.6 °F46.4 °F77 %29.98 in10.0 miCalmClear
10:15 PM55.4 °F46.4 °F72 %29.98 in10.0 miSW (220°)4.6 mphClear
10:35 PM48.2 °F44.6 °F87 %29.99 in9.0 miENE (70°)4.6 mphClear
10:55 PM51.8 °F46.4 °F82 %30.00 in10.0 miCalmClear
11:35 PM51.8 °F46.4 °F82 %29.99 in10.0 miEast (80°)3.5 mph
11:55 PM51.8 °F46.4 °F82 %30.00 in10.0 miSE (130°)3.5 mph
Hourly data recorded from KDVO, located miles away from San Rafael, California







STORIES FROM OUR PARTNERS